This demonstration page uses our WeatherBlox Daily Observations layout. Learn more.

Left ArrowRight Arrow

Hourly Observations for December 18, 2019

Temp ( °F °C ) Dew Point ( °F °C ) Humidity (%) Winds ( mph kmh ) Pressure ( in mb ) Visibility ( mi km ) Precip ( " mm )
12:56 am 00:56 Clear 18 -7.8 15 -9.4 88 88 SW 5 7 30.30 1026 10 16 0.00 0.00
1:56 am 01:56 Clear 20 -6.7 16 -8.9 85 85 WSW 6 9 30.28 1026 10 16 0.00 0.00
2:56 am 02:56 Clear 19 -7.2 15 -9.4 84 84 SW 7 11 30.29 1026 10 16 0.00 0.00
3:56 am 03:56 Clear 18 -7.8 15 -9.4 88 88 SW 6 9 30.27 1025 10 16 0.00 0.00
4:56 am 04:56 Clear 18 -7.8 15 -9.4 88 88 SW 8 13 30.27 1025 10 16 0.00 0.00
5:56 am 05:56 Clear 19 -7.2 16 -8.9 88 88 WSW 6 9 30.26 1025 10 16 0.00 0.00
6:56 am 06:56 Clear 19 -7.2 16 -8.9 88 88 SW 9 15 30.26 1025 10 16 0.00 0.00
7:56 am 07:56 Sunny 19 -7.2 16 -8.9 88 88 WSW 9 15 30.27 1025 10 16 0.00 0.00
8:40 am 08:40 Mostly Sunny 21 -6 16 -9 80 80 WSW 7 11 30.33 1027 10 16 0.00 0.00
8:56 am 08:56 Sunny 23 -5 17 -8.3 78 78 WSW 7 11 30.27 1025 10 16 0.00 0.00
9:56 am 09:56 Sunny 29 -1.7 20 -6.7 69 69 SW 12 19 30.25 1024 10 16 0.00 0.00
10:56 am 10:56 Sunny 33 0.6 21 -6.1 61 61 SW 14 22 30.22 1024 10 16 0.00 0.00
11:56 am 11:56 Sunny 38 3.3 23 -5 55 55 SW 13 20 30.19 1022 10 16 0.00 0.00
12:56 pm 12:56 Sunny 40 4.4 24 -4.4 53 53 SW 14 22 30.16 1021 10 16 0.00 0.00
1:56 pm 13:56 Sunny 43 6.1 27 -2.8 53 53 WSW 9 15 30.14 1021 10 16 0.00 0.00
2:56 pm 14:56 Sunny 45 7.2 28 -2.2 52 52 SW 13 20 30.13 1020 10 16 0.00 0.00
3:56 pm 15:56 Sunny 45 7.2 29 -1.7 54 54 SW 8 13 30.12 1020 10 16 0.00 0.00
4:56 pm 16:56 Sunny 43 6.1 29 -1.7 58 58 SW 8 13 30.14 1021 10 16 0.00 0.00
5:56 pm 17:56 Clear 37 2.8 27 -2.8 67 67 WSW 7 11 30.16 1021 10 16 0.00 0.00
6:56 pm 18:56 Clear 36 2.2 27 -2.8 70 70 WSW 6 9 30.16 1022 10 16 0.00 0.00
7:56 pm 19:56 Clear 32 0 26 -3.3 79 79 SW 7 11 30.17 1022 10 16 0.00 0.00
8:56 pm 20:56 Clear 32 0 25 -3.9 75 75 SSW 3 6 30.16 1021 10 16 0.00 0.00
9:56 pm 21:56 Clear 32 0 24 -4.4 73 73 WSW 8 13 30.14 1021 10 16 0.00 0.00
10:56 pm 22:56 Clear 30 -1.1 23 -5 75 75 WSW 3 6 30.13 1020 10 16 0.00 0.00
11:56 pm 23:56 Clear 31 -0.6 24 -4.4 76 76 WSW 7 11 30.11 1020 10 16 0.00 0.00

Powered by AerisWeather